Tracking 19170 objects as of 22-May-2018
HD Live streaming from Space Station
objects crossing your sky now

EUTELSAT 1-F4 (ECS 4)

Track EUTELSAT 1-F4 (ECS 4) now!
EUTELSAT 1-F4 (ECS 4) is classified as:


NORAD ID: 18351
Int'l Code: 1987-078B
Perigee: 36,185.4 km
Apogee: 36,301.3 km
Inclination: 15.5 °
Period: 1,459.1 minutes
Semi major axis: 42614 km
RCS: 3.9811 m2 (large)
Launch date: September 16, 1987
Source: European Telecommunications Satellite Organization (EUTE)
Launch site: FRENCH GUIANA (FRGUI)
aabbcc
Your satellite tracking list
Your tracking list is empty




NASA's NSSDC Master Catalog

Two Line Element Set (TLE):
1 18351U 87078B   18141.30682663 -.00000088  00000-0  00000+0 0  9993
2 18351  15.4714   6.2292 0013603 327.7410 221.9863  0.98688984 97636
Source of the keplerian elements: AFSPC